COSMOS 2251 DEB, 35993

Orbit data source: Space-Track

COSMOS 2251 DEB, 35993 is space debris in LEO originally from a launch on Wed, 16 Jun 1993 UTC launched from the Plesetsk Missile And Space Complex (PKMTR). The debris from Iridium 33, an American commercial communications satellite, has been tracked extensively since its accidental collision with the defunct Russian satellite Cosmos 2251 in 2009. This event, occurring at high speed in low Earth orbit (LEO), generated thousands of pieces of space debris, significantly increasing the risk of further collisions. The Iridium 33 debris cloud has impacted space traffic management and orbital debris mitigation strategies, making it a subject of ongoing study in space situational awareness.

Loading next visibility...
Identifier
35993, 1993-036AWK
Orbit
LEO
Country
Flag of CISCIS
Related business
Manufacturer
Unknown
Mission
Spacecraft
Bus & Motor
Unknown
Mass
Unknown
Launch date (UTC)
1993-06-16 (33 years ago)
Launch vehicle
Unknown
Launch site
Plesetsk Missile And Space Complex (PKMTR)
Object type
Payload
Rocket body
Debris
Shape & HBR
Unknown shape, 0.1 m
Radar Cross Section
Small (<0.1 m²)

Expand to show TLE details & history
Last TLE update: 1 day ago

TLE from 1 day ago
0 COSMOS 2251 DEB
1 35993U 93036AWK 26235.16853394  .00002807  00000-0  50320-3 0  9997
2 35993  74.0126 203.6810 0030495 321.9576  37.9439 14.66983176641574
Epoch: 2026-08-23T04:02Z
TLE epoch observation values (Epoch: 2026-08-23T04:02:41.332Z)
Latitude
-0.00003°
Longitude
171.54032°
Altitude
656.433 km
Speed
7.538 km/s
True Right ascension
13h 34m 43s
True Declination
0° 00' 00"
Sunlit
Object was in daylight at epoch
Visualization orbit readout
Latitude
Unknown
Longitude
Unknown
Altitude
Unknown
Speed
Unknown
Apparent Right ascension
Unknown
Apparent Declination
Unknown
Sunlit
N/A
Visualization observer readout
Local Sidereal Time
05:20:17
Azimuth
Unknown
Elevation
Unknown
Doppler factor
Unknown
Orbital elements
Apogee altitude
689.795 km
Perigee altitude
646.819 km
Semi-major axis
7,046.444 km
Eccentricity
0.00305
Inclination
74.0126°
RAAN
203.681°
Arg. of periapsis
321.9576°
True anomaly
38.15942°
Mean anomaly
37.9439°
Eccentric anomaly
38.05159°
Mean motion
3.66934 °/min
Orbital period
98.11 mins
BSTAR
0.0005032
Loading maneuver chart data...
Computing Atmospheric mass density...

Documentation

Showing up to 5 results
|